Temperature
20 20 20 20 20 21 23 24 25 24 24 25 24 24 22 21 21 19 18 18 18 18 18 18 18 18 18 17 17 17 17 17 17 17 17 17 17 17 17 17 17 17 17 17 17 17 17 17 17
20 20 20 20 21 22 23 24 24 24 24 24 24 23 22 20 19 18 18 18 18 18 18 18 18 17 17 17 17 17 17 17 17 17 17 17 17 17 17 17 17 17 17 17 17 17 17 17 17
20 20 21 22 22 23 23 24 24 24 24 24 23 22 21 20 19 18 18 18 18 17 17 18 18 17 17 17 17 17 17 17 17 17 17 17 17 17 17 17 17 17 17 17 17 17 17 17 17
20 21 22 22 23 23 24 24 25 25 24 24 23 21 19 19 18 18 18 18 18 17 17 18 17 17 17 17 17 17 17 17 17 17 17 16 17 17 17 17 17 17 17 17 17 17 17 17 17
21 22 22 23 23 24 25 25 25 25 24 24 22 21 19 18 18 18 18 18 18 17 17 18 17 17 17 17 17 17 17 17 17 17 17 17 17 17 17 17 17 17 17 17 17 17 17 17 17
22 23 23 23 23 24 25 24 24 24 24 23 22 21 18 18 18 18 18 18 18 18 18 18 17 17 17 17 17 17 17 17 17 17 17 17 17 17 17 17 17 17 17 17 17 17 17 17 17
22 22 23 23 23 23 24 24 24 24 23 23 22 21 18 18 18 18 18 18 18 18 18 17 17 17 17 17 17 17 17 17 17 17 17 17 17 17 17 17 17 16 17 17 17 17 17 17 17
22 23 23 23 23 23 24 23 23 23 23 22 22 21 19 18 18 18 19 18 18 18 18 18 17 17 17 17 17 17 17 17 17 17 17 17 16 16 16 17 17 17 16 17 17 17 17 17 17
23 22 22 23 23 23 23 23 23 22 22 22 21 20 19 19 19 19 19 19 18 18 18 18 17 17 17 17 17 17 17 17 17 17 17 17 16 16 16 17 17 17 16 16 16 16 17 17 16
24 22 22 23 24 23 23 23 23 22 22 21 20 19 19 19 19 19 19 19 18 18 18 18 18 18 17 17 17 17 17 17 17 17 17 17 17 17 17 17 16 16 16 16 16 16 16 16 16
25 23 23 24 24 24 23 23 23 22 22 21 20 19 19 19 19 19 19 19 19 18 18 18 18 18 18 17 17 17 17 17 17 17 17 17 17 17 17 16 16 16 16 16 16 16 16 16 16
24 24 24 24 23 23 23 23 22 22 21 21 20 20 20 20 19 19 19 19 19 19 18 18 18 18 18 18 18 17 17 17 17 17 17 17 17 17 17 16 16 16 16 16 16 16 16 16 16
24 24 24 23 23 23 23 22 22 21 21 21 20 20 20 20 20 19 19 19 19 18 18 18 18 19 18 18 18 17 17 17 17 17 17 17 17 17 17 17 16 16 16 16 16 16 16 16 16
24 24 24 23 23 23 23 23 22 21 21 21 21 20 20 20 20 19 20 19 19 19 19 18 19 19 19 18 18 17 17 17 17 17 17 17 17 17 17 16 16 16 16 16 16 16 16 16 16
24 24 23 23 23 23 23 22 22 21 21 21 21 21 20 20 20 20 20 19 19 19 19 19 18 18 18 18 18 17 17 17 17 17 17 17 17 17 16 16 16 16 16 16 16 16 16 16 15
24 23 22 23 24 23 23 21 22 22 22 21 21 21 20 20 20 20 20 20 19 19 19 19 18 18 18 18 18 17 17 17 17 17 17 17 17 16 16 16 16 16 16 16 16 16 16 16 15
23 23 22 23 24 24 23 22 22 22 22 22 21 21 20 20 20 20 20 19 19 19 19 19 18 18 18 18 17 17 17 17 17 16 17 17 16 16 16 16 16 16 16 16 16 16 16 15 15
23 23 23 23 24 24 23 22 23 22 22 22 22 21 21 20 20 20 20 19 19 19 19 18 18 18 18 17 17 17 17 17 16 16 16 16 16 16 16 16 16 16 16 16 16 15 15 15 15
24 24 23 24 24 24 23 23 23 23 23 22 22 21 21 20 20 20 19 19 19 19 19 18 18 18 17 17 17 17 17 16 16 16 16 16 16 16 16 16 16 16 16 15 15 15 15 15 15
24 24 23 24 25 24 23 23 23 23 23 22 22 22 21 21 20 20 19 19 19 19 19 18 18 18 17 17 17 17 16 16 16 16 16 16 16 16 16 15 15 15 15 15 15 15 15 15 15
24 24 23 23 24 24 23 23 23 24 23 23 23 22 22 21 20 20 19 19 19 19 18 18 18 18 17 17 17 17 16 16 16 16 16 16 16 16 16 15 15 15 15 15 15 15 15 15 15
23 24 24 24 23 23 23 22 23 24 23 23 23 22 22 22 21 20 19 19 19 19 18 18 18 18 17 17 17 17 16 16 16 16 16 16 16 16 15 15 15 15 15 15 15 15 15 15 15
24 24 24 24 23 23 24 23 23 24 23 23 23 22 22 22 21 20 20 19 19 18 18 18 18 18 17 17 17 17 16 16 16 16 16 15 15 15 15 15 15 15 15 15 15 15 15 15 15
24 24 24 24 23 22 23 23 22 23 24 23 23 23 22 22 21 21 20 19 19 18 18 18 18 18 17 17 17 17 17 16 16 16 16 16 16 15 15 15 15 15 15 15 15 15 15 15 15
24 23 22 21 21 22 25 24 24 25 25 25 24 23 22 22 21 21 20 19 19 18 18 18 18 17 17 17 17 17 17 16 16 16 16 16 16 15 15 15 15 15 15 15 15 15 15 15 15
24 23 21 21 22 23 24 24 24 26 25 25 24 23 22 22 21 20 20 19 19 18 18 18 17 17 17 17 17 17 17 17 16 16 16 16 16 16 16 15 15 15 15 15 15 15 15 15 15
23 23 24 23 23 23 24 24 25 25 25 25 24 23 22 22 21 20 20 19 19 18 18 17 17 17 17 17 17 17 17 17 17 16 16 16 16 16 16 15 15 15 15 15 15 15 15 15 15
24 24 23 22 22 22 23 23 23 23 24 24 24 23 22 22 21 20 20 19 18 18 18 18 17 17 17 17 17 17 17 16 16 16 16 16 16 16 15 15 15 15 15 15 15 15 15 14 14
23 23 23 23 23 21 21 22 25 25 24 24 24 23 22 22 21 20 20 19 18 18 18 18 17 17 17 17 17 17 17 16 16 16 16 16 16 16 15 15 15 15 15 15 15 14 14 14 14
24 23 23 22 22 22 22 22 26 25 25 24 24 23 22 21 21 20 20 19 18 18 18 17 17 17 17 17 17 17 16 16 16 16 16 16 16 16 15 15 15 15 15 15 14 14 14 14 14
Wind_Speed
8 9 6 2 2 3 1 4 8 8 7 9 10 11 12 12 9 8 4 7 10 10 11 12 12 11 12 12 12 12 12 12 12 12 12 12 12 12 12 11 11 11 11 12 12 11 12 11 11
9 6 4 3 3 1 3 6 10 9 7 7 10 13 12 11 10 8 5 7 10 11 12 12 12 12 12 12 13 13 12 12 12 12 12 12 12 12 11 11 11 10 10 11 11 11 11 11 10
10 6 3 3 1 3 4 8 9 9 7 7 8 10 8 7 8 5 6 8 10 11 13 12 12 12 12 12 12 12 13 13 13 12 11 11 11 11 11 10 10 9 9 10 10 10 10 10 10
5 3 4 2 3 6 6 7 6 7 7 7 9 9 7 7 6 7 8 9 11 12 13 12 13 13 13 13 12 13 12 12 12 11 11 10 10 10 10 9 9 8 9 9 9 9 9 9 9
4 3 3 1 4 6 7 6 6 6 6 9 11 9 8 8 10 9 8 9 11 11 13 13 13 13 13 13 13 12 12 12 11 11 10 9 9 9 9 9 9 8 9 9 9 9 9 8 8
3 3 3 1 6 6 7 7 7 8 8 10 10 9 6 6 8 7 8 8 10 11 13 13 12 13 12 13 12 12 11 11 11 10 9 9 9 9 8 8 8 8 9 9 8 8 8 7 6
4 4 2 2 5 5 6 6 7 7 8 8 7 7 7 7 6 6 8 9 9 9 11 11 12 11 12 12 12 11 10 10 9 8 8 7 8 8 8 8 8 8 8 8 7 7 7 6 5
3 3 2 2 5 5 5 6 6 7 6 7 6 7 8 8 7 6 7 8 8 8 8 8 10 11 12 11 11 10 9 8 7 7 6 6 6 7 8 8 8 7 7 7 6 6 5 4 3
4 2 2 3 3 4 5 5 5 6 6 7 8 11 12 11 9 7 7 7 6 7 6 6 7 8 10 11 11 10 8 7 7 6 5 5 5 7 8 9 7 7 6 5 4 4 4 2 1
2 1 3 4 4 4 5 4 4 5 7 9 12 13 12 10 8 8 7 7 7 6 5 5 5 6 7 7 9 7 7 7 5 5 6 4 4 7 8 8 7 6 5 4 3 3 3 3 1
0 2 3 4 5 5 5 4 3 5 5 8 11 13 11 10 7 7 7 7 6 6 5 6 5 5 5 4 5 3 4 3 2 4 6 6 6 6 7 6 5 5 6 4 3 3 2 3 4
2 3 3 3 4 3 4 4 4 6 6 8 10 10 10 8 7 6 6 6 6 7 5 4 4 4 5 5 4 3 3 2 3 4 6 6 3 2 3 3 3 2 3 3 2 2 4 6 9
3 4 4 4 4 4 5 5 5 6 7 8 9 9 8 7 7 6 7 7 8 7 5 3 2 4 5 5 2 4 3 3 5 5 5 7 3 2 3 4 4 4 4 3 3 5 7 7 9
3 5 5 4 4 3 4 5 4 5 6 8 9 8 8 7 7 7 7 8 7 7 7 4 4 2 4 5 3 4 4 5 6 5 4 6 5 4 3 4 3 3 4 5 5 7 6 6 7
5 5 5 4 3 3 2 2 5 7 7 8 8 8 8 7 7 6 6 7 7 7 7 5 4 3 5 6 5 4 4 6 5 4 6 7 7 6 4 3 2 3 6 7 7 8 6 6 6
6 5 4 4 4 4 3 3 5 8 8 7 7 7 7 7 6 6 6 6 6 6 6 6 3 5 6 5 4 4 5 5 5 6 6 7 8 8 5 3 3 4 6 5 4 4 5 5 5
6 5 4 5 6 4 4 3 6 7 8 8 7 7 7 7 7 6 6 5 5 6 6 6 4 5 6 5 4 4 5 5 6 6 7 8 8 8 6 3 3 6 5 4 4 5 4 5 5
4 4 4 5 6 5 4 4 7 8 7 8 8 8 8 8 7 7 6 6 5 5 6 5 5 5 6 4 4 3 4 4 5 5 6 7 8 8 6 4 5 6 4 4 4 5 5 4 3
4 4 3 2 5 5 6 6 7 8 7 7 7 9 9 9 9 8 7 7 7 5 6 6 6 5 4 3 3 3 3 2 3 4 6 7 8 7 6 4 4 4 4 4 4 4 4 3 3
4 3 3 2 3 4 5 6 7 9 9 7 7 8 9 9 10 9 8 7 6 6 6 7 6 5 5 4 4 3 3 3 3 3 5 6 6 7 5 4 3 4 4 4 4 4 2 1 1
5 5 3 3 3 5 5 5 8 9 9 8 8 7 8 10 11 11 9 8 6 6 5 5 6 6 6 5 3 4 3 2 3 3 2 4 6 6 5 4 4 3 4 3 2 3 3 1 1
4 4 5 5 5 4 7 4 6 9 9 9 8 7 8 9 10 11 10 9 8 6 6 6 5 6 7 6 4 5 4 3 2 3 3 3 4 4 4 4 4 3 3 3 2 3 2 2 1
4 4 6 7 7 7 8 5 4 8 10 10 10 9 8 9 10 11 10 9 8 7 6 6 5 6 6 6 5 4 4 3 3 3 4 3 2 3 4 3 3 4 3 3 4 4 4 2 2
4 6 7 7 6 7 8 6 3 6 9 10 10 10 9 9 9 9 10 8 7 7 6 5 4 5 5 6 7 6 5 4 4 4 4 3 2 2 3 3 3 4 3 4 3 3 3 3 3
6 5 4 5 5 5 5 4 3 5 6 7 9 10 10 9 8 9 9 9 8 8 7 6 6 5 5 5 6 7 6 5 5 4 4 4 3 2 3 3 3 4 4 4 4 3 3 3 3
8 8 5 3 4 3 5 4 3 6 6 6 7 8 9 9 9 8 9 9 8 8 8 8 7 6 5 5 5 5 6 4 3 4 4 4 3 3 4 4 4 5 4 4 4 2 2 3 3
7 8 8 8 9 5 4 3 5 7 7 6 8 9 9 9 9 9 9 9 8 8 7 8 8 6 6 5 4 4 4 5 4 4 4 4 4 3 5 5 4 4 4 4 3 3 3 3 3
9 7 5 5 4 5 3 3 3 7 7 6 7 8 9 9 8 9 9 9 8 7 7 7 8 7 6 6 5 4 4 4 4 4 5 5 4 4 4 4 4 4 4 4 3 3 3 4 3
8 9 7 5 5 4 3 1 2 5 7 7 7 7 8 9 9 8 8 8 8 7 7 6 6 6 6 6 5 5 5 5 5 4 5 5 5 5 5 4 4 4 4 3 3 3 3 3 3
8 9 8 5 5 5 4 1 1 3 5 6 7 7 7 8 8 8 8 8 7 7 7 7 7 7 6 5 6 5 5 5 5 5 5 5 5 4 4 4 4 4 3 3 4 3 3 3 3
Wind_Direction
255 242 234 241 256 236 64 65 72 64 61 58 55 66 66 53 59 93 115 91 97 96 88 80 77 77 75 76 78 80 80 82 83 82 80 79 80 80 80 78 74 70 69 70 68 63 62 60 60
269 261 255 240 257 255 77 76 73 72 80 78 67 70 72 67 73 95 101 91 95 94 86 80 80 81 79 79 80 80 78 78 81 81 80 80 81 79 78 81 76 73 71 72 72 65 63 62 59
262 259 257 247 313 36 71 76 84 82 76 77 74 63 58 68 77 92 104 104 94 91 87 83 83 83 83 82 83 83 81 80 80 80 81 82 83 82 79 81 79 76 73 74 75 71 66 63 57
257 251 245 250 51 61 79 91 96 93 82 79 86 75 69 59 82 106 113 108 100 96 94 90 89 87 85 84 84 84 83 83 84 84 83 82 83 82 79 78 79 77 79 78 77 74 68 65 57
251 258 248 191 81 74 68 69 76 77 77 82 84 89 83 76 96 109 113 107 103 103 103 100 96 94 90 88 87 86 86 84 83 83 84 84 83 83 82 79 78 79 81 81 80 77 71 67 57
263 256 262 106 89 78 67 56 69 77 85 91 96 96 91 103 105 109 110 107 106 110 112 110 107 102 97 93 92 92 92 90 86 84 84 87 87 85 84 81 81 83 83 83 83 81 76 69 57
280 287 274 107 105 88 72 56 60 77 72 69 87 98 113 115 112 113 112 111 109 113 122 130 128 117 108 102 101 100 100 100 97 96 97 98 96 90 87 86 85 87 88 88 88 88 83 73 61
278 294 306 81 101 86 76 74 63 64 67 67 79 107 125 133 131 121 114 111 111 111 118 130 130 131 127 120 117 116 116 117 120 119 122 124 120 111 98 96 101 99 99 98 99 100 98 89 71
274 289 5 45 85 99 104 91 80 80 79 73 72 95 120 135 137 131 116 110 107 106 113 117 122 129 129 130 131 138 140 144 149 156 155 153 159 136 112 101 111 112 115 117 121 125 124 115 88
232 20 42 39 75 106 107 99 103 107 98 93 95 107 125 140 143 136 132 126 122 118 118 116 116 124 124 118 133 147 142 157 173 154 158 166 110 104 108 118 134 139 142 150 165 170 165 185 196
96 94 79 59 72 95 107 97 96 111 104 114 124 133 139 144 142 135 131 127 128 118 107 111 118 116 120 114 116 113 112 136 112 99 109 97 94 115 123 142 157 172 174 175 170 198 149 121 82
119 102 100 84 88 100 109 108 83 84 102 113 122 133 140 147 139 136 130 130 123 108 108 122 135 128 112 102 99 94 80 74 67 61 88 77 65 80 96 107 100 123 115 102 99 99 87 75 74
131 114 102 93 94 96 104 105 101 97 108 121 129 135 139 137 142 141 142 143 131 128 130 124 111 111 117 105 103 96 76 55 64 34 66 87 66 61 76 85 64 61 80 84 63 66 64 58 60
121 120 117 117 112 116 120 129 132 127 138 141 145 150 152 150 150 155 155 141 139 139 136 129 108 90 102 106 89 81 81 72 67 34 29 79 69 68 67 78 75 63 73 79 81 83 77 68 66
153 154 147 150 151 154 144 152 147 153 160 159 159 153 149 153 159 155 145 139 142 138 132 122 109 99 84 84 81 84 82 81 71 41 27 61 68 67 64 71 74 71 70 73 77 80 82 84 76
196 192 179 168 173 179 209 186 151 163 171 165 159 150 150 152 155 148 147 142 139 127 123 121 121 104 91 83 78 83 79 74 70 50 31 47 66 71 58 52 66 77 74 75 82 81 79 77 73
212 209 187 174 181 188 203 177 160 174 175 166 163 162 161 159 157 152 144 137 130 128 131 133 117 104 97 99 92 77 85 75 69 56 36 38 56 66 66 49 51 68 70 72 78 81 86 88 86
222 216 200 182 176 194 195 181 168 181 186 175 174 172 168 168 165 156 147 143 140 145 145 141 121 120 118 114 102 78 68 70 71 64 50 42 48 59 64 62 50 58 66 64 71 76 76 86 91
251 218 206 182 179 202 197 193 183 184 189 190 181 179 174 174 165 155 157 160 162 165 155 143 139 132 120 111 104 99 92 83 76 68 60 53 51 51 62 62 53 60 65 69 83 84 83 88 91
238 241 219 194 187 217 210 210 195 187 193 197 196 189 179 169 164 157 160 163 168 162 157 147 142 136 125 109 115 117 105 101 96 73 64 65 59 52 61 70 70 78 73 61 67 79 75 80 103
231 244 235 229 207 222 237 229 209 187 188 194 204 192 183 173 170 164 166 162 165 166 158 151 146 141 130 131 123 117 106 99 101 99 80 64 69 63 55 61 75 84 93 87 78 83 83 55 356
243 238 240 238 232 229 225 238 216 188 185 195 200 193 186 177 171 165 168 168 172 169 156 162 163 150 142 144 142 145 137 135 135 126 126 109 93 83 64 69 77 81 81 83 66 69 65 61 15
249 239 243 247 253 257 241 244 217 175 185 192 192 190 183 178 174 168 169 171 171 165 163 172 166 150 150 152 147 150 144 148 138 127 129 126 109 104 89 73 80 86 86 85 71 62 50 50 51
239 241 244 247 252 250 234 231 202 191 188 184 184 184 180 177 170 166 165 164 164 156 158 165 155 150 154 160 160 161 150 147 140 140 142 137 120 104 101 90 78 83 83 81 79 78 67 53 49
235 247 242 226 227 237 215 227 195 161 165 172 177 177 173 172 168 167 162 160 159 159 164 165 161 166 168 177 171 163 162 166 160 156 158 150 132 123 119 101 88 82 79 83 78 75 76 74 65
229 237 247 259 254 241 213 220 137 139 139 152 159 160 162 168 167 165 160 157 158 164 168 174 173 175 176 184 176 165 159 156 151 161 154 144 135 134 127 107 93 87 84 85 78 73 63 70 74
234 242 260 275 279 268 224 173 140 134 140 151 154 155 161 169 168 166 160 157 157 160 170 178 171 172 177 188 173 156 157 152 159 159 142 134 138 135 121 120 114 103 94 92 95 89 75 63 58
246 259 261 262 278 269 241 200 178 157 151 156 160 161 165 165 169 167 162 160 160 162 169 172 171 174 178 181 172 156 156 157 155 148 142 137 134 131 128 125 126 121 113 104 98 100 103 96 74
231 242 247 258 263 270 277 303 110 150 151 157 158 155 160 165 168 166 161 161 161 163 170 171 166 172 181 178 165 164 166 163 158 150 147 141 139 141 141 138 132 130 128 125 116 112 101 109 106
241 240 245 248 265 263 263 259 63 106 129 141 146 150 157 158 161 162 160 161 164 168 173 176 175 178 177 170 163 161 161 160 162 156 149 142 141 142 143 139 129 127 124 124 123 124 117 116 121
Height
1503 1503 1504 1506 1507 1507 1505 1499 1494 1497 1498 1500 1501 1502 1507 1511 1516 1527 1527 1526 1526 1525 1525 1525 1525 1525 1526 1526 1526 1527 1527 1527 1528 1528 1529 1529 1530 1531 1531 1531 1532 1533 1533 1534 1534 1534 1534 1534 1534
1503 1505 1507 1506 1507 1510 1507 1499 1499 1500 1501 1502 1503 1506 1510 1516 1520 1524 1526 1527 1527 1527 1526 1526 1526 1527 1527 1528 1528 1528 1528 1529 1529 1530 1530 1531 1531 1532 1532 1533 1533 1534 1535 1535 1535 1535 1535 1535 1535
1504 1505 1507 1504 1505 1508 1507 1500 1500 1501 1502 1503 1506 1510 1514 1520 1523 1525 1527 1528 1528 1528 1528 1528 1528 1528 1529 1529 1529 1530 1530 1530 1531 1531 1532 1532 1533 1533 1534 1534 1535 1535 1536 1536 1536 1536 1537 1537 1537
1506 1507 1505 1505 1506 1502 1500 1500 1501 1502 1504 1505 1508 1514 1520 1523 1524 1526 1528 1529 1529 1529 1529 1529 1530 1530 1530 1531 1531 1531 1532 1532 1533 1533 1533 1534 1534 1535 1535 1536 1536 1536 1537 1537 1537 1538 1538 1538 1538
1507 1506 1505 1505 1504 1501 1499 1500 1502 1503 1505 1507 1510 1517 1523 1526 1526 1528 1529 1530 1531 1531 1531 1531 1531 1532 1532 1532 1533 1533 1534 1534 1535 1535 1535 1536 1536 1536 1537 1537 1537 1538 1538 1538 1539 1539 1539 1539 1540
1507 1504 1507 1509 1505 1502 1502 1503 1504 1505 1508 1510 1513 1518 1525 1527 1528 1529 1531 1532 1532 1532 1532 1533 1533 1534 1534 1534 1534 1535 1536 1536 1536 1536 1537 1537 1537 1538 1538 1539 1539 1539 1539 1539 1540 1540 1540 1541 1541
1507 1504 1505 1505 1507 1506 1505 1506 1507 1508 1510 1512 1514 1519 1525 1528 1529 1530 1532 1533 1534 1534 1534 1534 1535 1535 1536 1536 1537 1537 1537 1538 1538 1538 1539 1539 1539 1539 1540 1540 1540 1540 1541 1541 1541 1541 1542 1542 1542
1505 1505 1504 1504 1507 1509 1507 1508 1510 1511 1513 1515 1516 1520 1525 1529 1530 1532 1533 1534 1535 1536 1537 1537 1537 1538 1538 1538 1539 1539 1539 1540 1540 1540 1541 1541 1541 1541 1541 1541 1541 1542 1542 1542 1542 1543 1543 1544 1544
1505 1508 1510 1507 1508 1509 1508 1510 1512 1514 1515 1516 1518 1521 1525 1528 1531 1533 1534 1536 1537 1538 1539 1539 1540 1540 1541 1541 1541 1541 1542 1542 1542 1542 1543 1543 1542 1543 1543 1543 1543 1543 1543 1544 1544 1544 1545 1545 1545
1504 1510 1509 1506 1505 1507 1509 1511 1512 1514 1516 1519 1521 1524 1527 1529 1532 1533 1535 1536 1538 1539 1540 1541 1542 1542 1543 1543 1543 1543 1544 1544 1544 1544 1545 1545 1545 1545 1545 1545 1545 1545 1545 1546 1546 1546 1546 1547 1547
1503 1507 1506 1506 1507 1509 1510 1512 1513 1515 1518 1520 1523 1526 1528 1530 1532 1534 1536 1537 1539 1540 1541 1542 1543 1544 1544 1545 1545 1546 1546 1546 1546 1546 1547 1547 1547 1547 1547 1546 1546 1547 1547 1548 1548 1548 1548 1548 1549
1504 1505 1506 1508 1509 1510 1511 1513 1515 1516 1520 1522 1524 1526 1529 1531 1533 1534 1536 1538 1540 1541 1543 1544 1544 1545 1545 1546 1547 1547 1547 1547 1548 1548 1548 1548 1548 1548 1548 1548 1548 1548 1549 1549 1550 1550 1550 1551 1551
1504 1506 1508 1510 1510 1512 1513 1515 1517 1519 1521 1523 1525 1527 1529 1531 1533 1535 1537 1538 1540 1542 1543 1545 1545 1546 1547 1547 1548 1548 1549 1549 1549 1549 1550 1550 1550 1550 1549 1550 1550 1550 1551 1551 1551 1551 1552 1552 1552
1506 1507 1509 1510 1511 1513 1514 1516 1518 1520 1522 1524 1525 1527 1529 1531 1533 1535 1537 1538 1540 1542 1543 1545 1546 1547 1548 1548 1548 1549 1549 1550 1550 1550 1551 1551 1551 1551 1551 1551 1551 1552 1552 1552 1552 1553 1553 1553 1553
1506 1508 1510 1511 1511 1513 1514 1517 1517 1520 1522 1524 1525 1527 1529 1531 1533 1535 1537 1538 1540 1542 1544 1545 1547 1548 1548 1548 1549 1550 1551 1551 1551 1551 1551 1552 1552 1551 1552 1552 1553 1553 1553 1554 1554 1554 1554 1555 1555
1505 1508 1513 1511 1510 1512 1517 1522 1517 1519 1521 1523 1525 1527 1529 1531 1533 1534 1536 1538 1540 1542 1544 1545 1547 1548 1549 1549 1550 1551 1551 1552 1552 1552 1552 1552 1552 1552 1552 1553 1554 1554 1555 1555 1555 1555 1556 1556 1556
1507 1512 1513 1511 1508 1510 1514 1518 1516 1518 1519 1521 1524 1526 1528 1530 1532 1534 1536 1537 1540 1542 1543 1545 1547 1548 1549 1550 1551 1551 1552 1552 1552 1552 1552 1552 1553 1553 1553 1554 1555 1555 1555 1556 1556 1557 1557 1557 1558
1512 1509 1510 1510 1507 1508 1512 1514 1514 1516 1517 1519 1522 1524 1527 1529 1531 1533 1536 1537 1540 1542 1543 1545 1547 1548 1549 1550 1551 1552 1552 1553 1553 1553 1553 1553 1553 1554 1554 1554 1555 1556 1556 1557 1557 1558 1558 1559 1559
1502 1504 1508 1506 1503 1507 1510 1511 1512 1513 1515 1517 1519 1522 1525 1527 1530 1532 1535 1537 1539 1541 1543 1545 1547 1548 1549 1550 1551 1552 1553 1553 1553 1554 1554 1554 1554 1554 1555 1555 1556 1556 1557 1557 1558 1559 1559 1560 1561
1501 1505 1507 1505 1502 1505 1508 1509 1508 1510 1512 1515 1517 1519 1522 1525 1528 1531 1534 1536 1538 1540 1543 1544 1546 1548 1549 1550 1551 1552 1553 1553 1554 1554 1554 1554 1554 1555 1555 1555 1556 1557 1557 1558 1559 1560 1560 1561 1561
1503 1506 1506 1507 1504 1504 1507 1511 1506 1506 1509 1512 1514 1516 1519 1522 1526 1529 1532 1535 1537 1539 1542 1543 1545 1547 1548 1549 1551 1552 1552 1553 1554 1554 1554 1555 1555 1555 1556 1556 1557 1557 1558 1559 1560 1561 1561 1561 1562
1506 1501 1502 1504 1509 1511 1509 1520 1507 1502 1506 1508 1511 1514 1516 1520 1523 1526 1530 1533 1535 1538 1540 1542 1544 1546 1547 1548 1550 1551 1552 1553 1554 1554 1555 1555 1556 1556 1557 1557 1557 1558 1559 1560 1560 1561 1561 1562 1562
1502 1499 1501 1502 1506 1509 1505 1512 1507 1499 1504 1505 1507 1511 1514 1517 1521 1524 1527 1531 1534 1536 1539 1541 1543 1544 1546 1547 1549 1550 1551 1552 1554 1554 1555 1555 1556 1557 1557 1558 1558 1559 1559 1560 1560 1561 1562 1562 1562
1498 1500 1500 1501 1505 1517 1504 1508 1509 1499 1498 1499 1503 1507 1511 1515 1518 1522 1525 1529 1532 1534 1537 1539 1541 1543 1544 1546 1548 1549 1550 1552 1553 1554 1555 1555 1556 1557 1557 1558 1559 1559 1560 1560 1561 1561 1562 1562 1562
1498 1507 1518 1520 1520 1514 1495 1501 1500 1490 1489 1493 1498 1503 1508 1512 1516 1520 1523 1526 1529 1532 1534 1537 1539 1541 1543 1545 1547 1548 1549 1551 1552 1553 1554 1555 1556 1557 1557 1558 1559 1559 1560 1560 1561 1561 1562 1562 1563
1499 1503 1518 1526 1520 1508 1496 1500 1492 1484 1488 1492 1496 1501 1505 1510 1514 1517 1521 1524 1527 1530 1532 1535 1537 1539 1541 1543 1545 1547 1548 1550 1551 1552 1554 1555 1556 1556 1557 1558 1559 1559 1560 1560 1561 1561 1562 1562 1563
1498 1499 1496 1505 1503 1507 1499 1492 1489 1484 1488 1491 1495 1499 1504 1508 1511 1515 1519 1522 1525 1527 1530 1533 1535 1537 1539 1541 1543 1545 1547 1548 1550 1551 1553 1554 1555 1556 1557 1558 1558 1559 1560 1560 1561 1561 1562 1562 1563
1492 1494 1499 1506 1515 1517 1504 1498 1498 1491 1490 1491 1494 1498 1502 1506 1510 1513 1517 1520 1523 1525 1528 1530 1533 1535 1537 1539 1542 1543 1545 1547 1548 1550 1552 1553 1554 1556 1557 1558 1558 1559 1560 1560 1561 1561 1562 1563 1563
1494 1496 1496 1499 1502 1514 1517 1507 1482 1484 1486 1489 1493 1496 1500 1504 1508 1511 1515 1518 1521 1523 1526 1528 1530 1533 1535 1537 1539 1541 1543 1545 1547 1549 1550 1552 1553 1555 1556 1557 1558 1559 1560 1560 1561 1561 1562 1562 1563
1489 1491 1494 1506 1506 1501 1509 1507 1480 1481 1484 1488 1492 1496 1499 1503 1506 1510 1513 1516 1519 1521 1524 1526 1528 1530 1533 1535 1537 1539 1541 1543 1545 1547 1549 1551 1552 1554 1555 1557 1558 1558 1559 1560 1560 1561 1561 1562 1563